Wetbulb
44.56 43.89 44.22 45.52 47.27 47.76 46.90 46.89 46.73 45.17 44.21 43.47 43.29 43.34 43.53 43.61 44.03 44.09 44.51 46.14 44.46 45.07 45.91 45.55 45.39 45.63 44.57 45.22 46.58 47.64 47.73 48.59 49.18 52.30 53.31 52.98 51.04 48.66 49.00 50.41 51.87 51.38 52.21
44.76 44.40 46.61 47.64 47.35 47.49 47.23 47.38 47.69 46.90 46.71 44.96 44.50 44.45 43.67 42.81 43.13 44.40 44.82 45.61 45.13 44.45 45.52 45.48 45.74 45.62 44.63 43.82 43.54 46.89 47.28 49.31 50.61 48.13 48.62 50.40 49.03 48.50 48.09 49.46 51.56 52.84 51.78
44.68 44.13 45.81 46.81 46.88 47.06 47.23 47.69 48.23 47.87 47.79 47.54 46.12 45.06 45.04 45.09 45.11 45.60 45.46 45.84 46.00 45.47 45.56 44.71 44.78 45.15 44.22 44.61 45.11 46.61 47.43 49.25 49.25 47.99 46.63 48.04 48.19 47.51 47.33 49.04 49.97 50.99 52.14
44.57 43.99 43.77 45.12 45.22 45.18 45.49 45.47 47.01 47.20 47.21 47.49 47.40 46.18 45.79 45.78 46.12 46.82 45.71 45.59 46.15 46.13 45.29 45.57 45.65 44.72 43.34 46.24 46.15 46.13 46.60 46.18 46.65 46.20 45.98 45.69 46.58 47.34 47.01 46.24 46.18 48.51 49.34
44.67 44.42 43.98 44.75 45.90 44.93 44.64 44.19 46.27 46.37 46.71 47.33 46.99 46.73 46.27 46.00 46.25 47.19 46.06 43.83 41.93 41.66 42.07 43.57 45.79 49.21 50.25 50.12 47.74 46.33 45.86 45.19 45.24 44.91 44.53 44.53 44.28 44.71 43.91 44.62 44.71 46.52 46.56
45.03 45.47 45.53 45.31 45.58 44.82 44.39 44.42 46.00 46.20 46.39 47.35 46.89 46.83 45.86 46.49 46.76 48.49 46.87 42.83 40.78 40.32 40.09 41.93 45.21 47.92 44.56 48.21 49.74 50.19 48.06 45.17 44.10 43.89 43.45 42.44 41.87 42.59 43.95 43.56 43.04 41.42 42.94
44.44 45.77 45.55 45.13 45.05 44.60 44.48 43.54 42.89 44.73 45.85 46.85 47.19 46.76 46.07 45.72 46.21 46.28 48.80 46.64 44.51 42.13 41.06 41.08 44.30 46.16 46.76 42.33 44.81 45.69 47.53 48.35 47.66 44.64 42.40 41.39 39.35 40.79 43.48 43.18 42.06 42.03 42.10
43.52 44.14 45.28 45.08 44.52 43.98 43.48 43.56 42.94 42.13 44.13 45.15 46.05 46.96 46.21 46.16 45.78 45.39 46.98 46.98 46.64 46.06 44.48 42.29 40.55 43.89 45.24 46.10 43.96 40.63 43.01 44.02 44.47 44.89 42.90 41.92 41.80 42.17 44.75 43.29 43.49 42.52 43.39
43.41 43.84 44.25 45.17 44.13 43.68 42.57 41.76 42.13 41.79 43.72 44.60 45.59 45.92 46.24 45.64 45.13 44.86 45.13 45.79 45.75 45.62 45.95 44.83 45.05 43.96 44.69 45.02 43.95 41.98 41.19 44.35 47.66 47.51 46.48 45.68 44.98 45.48 46.05 44.49 42.63 40.78 39.12
43.16 43.80 44.03 45.10 44.08 42.67 41.93 41.67 41.10 40.89 41.87 44.29 44.66 45.57 46.43 45.66 45.00 44.09 45.52 45.85 45.13 45.32 45.71 45.73 46.19 44.26 43.75 43.93 44.53 44.13 42.94 41.36 44.10 44.11 43.56 44.41 44.49 44.30 45.61 42.17 42.98 43.42 39.91
44.05 44.23 43.99 44.50 43.99 42.61 41.61 41.46 41.14 41.12 41.04 42.12 43.85 45.03 45.30 44.95 43.97 42.91 43.44 46.74 45.72 44.78 45.16 45.44 45.25 43.81 42.60 42.97 43.33 43.67 43.34 44.46 44.69 42.75 42.82 43.13 43.35 42.52 41.76 43.25 43.74 43.00 41.11
44.03 43.03 43.08 43.61 44.39 44.25 41.06 42.41 43.73 42.31 39.60 39.62 42.96 44.46 45.18 44.80 44.42 43.26 42.12 43.18 46.19 45.24 44.77 45.14 44.94 42.57 42.20 42.17 43.53 42.52 43.12 44.01 43.03 42.14 42.07 40.49 42.48 40.64 39.57 39.55 42.08 41.11 41.29
43.04 42.20 41.87 42.79 43.79 43.94 44.96 43.48 43.47 43.89 41.79 39.44 41.86 42.49 43.48 44.75 44.10 43.43 42.80 42.27 44.26 46.18 46.33 45.42 43.57 42.83 43.34 44.00 43.72 43.94 43.76 43.05 41.78 38.98 40.60 42.84 43.75 43.99 42.27 43.10 43.77 41.67 42.34
42.18 41.91 41.70 41.95 42.53 44.01 43.69 45.29 44.19 43.35 43.43 42.90 42.50 42.15 42.26 43.65 43.03 42.36 42.91 43.68 43.73 45.27 46.31 46.74 45.71 44.90 44.35 45.21 45.11 44.35 44.46 43.95 42.96 42.26 42.36 43.00 43.56 43.36 42.46 43.10 42.20 42.21 41.40
41.89 41.92 41.54 41.20 42.36 45.24 46.54 44.99 45.25 44.79 44.29 41.01 43.17 40.50 41.73 41.96 41.77 39.81 40.05 41.65 42.39 42.68 44.04 45.90 45.17 45.03 44.95 44.66 44.68 44.92 44.14 43.59 42.99 42.94 42.72 42.25 42.22 42.38 42.14 42.85 42.18 41.39 40.21
41.47 41.53 41.30 41.31 41.09 45.52 45.51 46.90 43.53 42.13 41.65 41.00 40.06 40.40 42.88 41.64 39.51 39.59 39.51 39.43 39.84 40.29 43.08 42.35 42.73 42.88 43.15 43.99 44.55 44.62 44.89 44.31 42.81 43.18 42.41 42.07 41.81 41.83 41.48 41.98 42.46 41.84 39.62
40.64 41.93 44.64 45.28 45.73 45.09 45.74 46.82 45.81 45.64 43.43 42.09 41.63 39.99 39.15 39.30 39.41 39.39 39.51 39.60 39.30 41.37 42.30 42.30 41.72 40.72 41.68 42.55 43.45 44.30 44.42 45.36 45.16 42.90 42.64 42.54 42.31 42.09 41.74 41.58 42.11 41.94 41.03
41.62 42.79 45.04 45.63 45.37 45.17 46.69 46.69 46.23 44.74 43.45 43.50 42.50 41.37 40.05 39.65 39.65 39.20 39.62 41.73 42.81 42.69 42.26 41.64 41.66 42.68 39.63 38.21 41.19 42.36 43.56 44.21 44.82 45.10 43.56 43.27 42.99 42.58 42.18 41.98 41.82 41.22 41.14
42.99 43.92 44.79 45.12 45.30 46.10 46.88 47.09 46.13 45.07 44.44 43.62 43.02 41.89 40.92 39.83 40.57 40.41 40.72 43.04 42.09 41.91 42.23 42.06 42.22 42.50 41.53 38.25 40.31 41.41 41.66 41.42 41.82 43.80 45.04 44.15 43.74 42.26 42.02 42.44 42.02 37.95 39.68
46.23 44.19 42.54 44.75 44.61 45.80 45.16 44.55 44.91 44.14 42.88 43.09 42.33 41.81 41.86 41.97 42.23 42.15 42.71 42.73 42.54 42.25 42.76 42.33 42.53 42.72 42.32 39.31 39.08 39.88 38.80 39.49 40.01 40.88 42.37 43.57 45.53 45.01 43.38 42.25 42.16 42.27 42.54
48.25 47.04 39.27 42.54 41.35 43.20 44.13 43.58 43.78 44.03 42.75 42.11 42.06 41.49 34.42 41.51 41.84 41.65 41.96 42.11 42.45 42.87 42.64 42.80 42.13 42.65 41.36 40.50 37.01 38.50 35.61 35.70 37.21 38.51 40.09 41.96 43.95 45.13 44.42 43.98 42.95 43.10 42.66
42.03 44.54 45.24 41.92 40.94 41.22 40.99 41.51 41.76 41.40 41.44 40.75 41.52 42.00 36.60 42.42 42.26 42.01 41.99 42.14 42.71 43.37 43.49 43.08 42.58 42.40 40.52 39.33 38.87 37.47 37.21 35.43 33.56 34.86 37.63 40.62 42.21 45.12 44.55 43.94 43.46 43.33 42.10
41.34 43.45 42.02 41.01 40.93 39.22 40.80 40.35 40.00 40.11 39.76 39.79 40.13 41.72 41.70 42.10 42.12 42.30 42.05 42.05 42.16 43.26 43.00 42.03 42.61 41.39 40.70 38.68 37.95 37.46 36.36 35.08 34.29 32.90 35.48 38.46 38.28 41.40 42.93 42.05 42.74 41.88 38.28
42.14 42.39 41.89 41.30 40.40 39.84 39.37 39.97 40.02 37.80 39.07 39.59 40.91 41.72 41.69 41.99 42.10 42.10 42.10 41.59 41.95 42.53 42.10 41.84 42.11 39.95 38.72 37.16 34.55 35.70 35.19 33.08 33.17 33.65 34.82 36.05 36.64 39.24 40.77 43.18 41.80 40.53 40.19
42.95 42.28 42.22 43.23 41.83 41.33 41.20 41.64 38.86 38.68 38.84 39.43 41.43 41.68 42.06 42.26 42.01 42.07 41.19 39.74 37.74 39.03 39.51 39.18 37.43 36.65 36.84 34.58 31.74 32.67 32.14 31.40 32.04 32.40 34.58 35.52 36.38 39.41 42.32 45.66 45.77 43.33 42.76
42.63 45.30 44.51 43.58 42.07 41.86 41.57 39.08 38.20 38.47 38.22 40.05 41.48 41.49 41.87 41.76 41.10 39.61 38.58 37.08 35.90 36.84 37.87 36.58 35.91 34.88 33.40 32.35 31.24 30.55 30.95 30.94 31.18 31.43 32.92 36.06 38.64 42.54 44.60 45.82 45.76 46.44 45.67
MSLP
1024.99 1024.55 1023.99 1023.48 1022.94 1022.41 1022.00 1021.59 1021.00 1020.38 1019.80 1019.22 1018.68 1018.17 1017.68 1017.19 1016.70 1016.21 1015.64 1015.12 1014.81 1014.46 1014.06 1013.74 1013.39 1012.90 1012.42 1011.96 1011.45 1011.02 1010.66 1010.38 1009.96 1009.64 1009.91 1010.60 1010.87 1010.92 1011.18 1010.49 1010.64 1010.85 1011.02
1025.01 1024.49 1024.04 1023.56 1023.05 1022.61 1022.15 1021.60 1020.98 1020.53 1019.89 1019.50 1018.97 1018.42 1017.93 1017.48 1016.98 1016.56 1016.11 1015.62 1015.25 1014.92 1014.53 1014.14 1013.62 1013.05 1012.47 1012.12 1011.68 1011.03 1010.49 1009.99 1009.81 1009.96 1010.63 1011.18 1011.57 1011.75 1011.65 1011.61 1011.69 1011.90 1011.99
1025.02 1024.57 1024.07 1023.71 1023.27 1022.80 1022.35 1021.83 1021.28 1020.80 1020.26 1019.71 1019.27 1018.88 1018.47 1017.95 1017.40 1016.86 1016.46 1016.04 1015.65 1015.31 1014.93 1014.53 1013.99 1013.32 1012.81 1012.32 1011.80 1011.23 1010.68 1010.20 1010.00 1010.37 1011.29 1011.89 1012.38 1012.38 1012.34 1012.44 1012.72 1012.70 1012.91
1025.13 1024.81 1024.35 1023.80 1023.45 1023.07 1022.60 1022.12 1021.59 1021.19 1020.71 1020.17 1019.68 1019.23 1018.75 1018.25 1017.78 1017.34 1016.89 1016.55 1016.18 1015.75 1015.30 1014.80 1014.35 1013.82 1013.35 1012.69 1012.25 1011.82 1011.26 1010.97 1011.05 1011.14 1011.82 1012.40 1012.62 1012.91 1013.04 1013.07 1013.40 1013.67 1013.57
1025.25 1024.93 1024.54 1024.01 1023.66 1023.33 1022.87 1022.44 1021.93 1021.44 1021.00 1020.59 1020.11 1019.64 1019.22 1018.76 1018.45 1017.88 1017.46 1017.16 1016.78 1016.33 1015.81 1015.34 1014.83 1014.14 1013.63 1013.16 1012.83 1012.57 1012.16 1012.07 1012.16 1012.36 1012.64 1012.91 1013.15 1013.58 1013.72 1013.96 1014.08 1014.26 1014.24
1025.34 1025.08 1024.68 1024.36 1024.01 1023.70 1023.26 1022.85 1022.32 1021.84 1021.40 1021.02 1020.59 1020.15 1019.63 1019.10 1018.57 1018.08 1017.87 1017.71 1017.47 1017.03 1016.52 1015.76 1015.14 1014.70 1014.37 1014.02 1013.59 1013.22 1013.08 1012.94 1013.05 1013.29 1013.60 1013.86 1014.20 1014.29 1014.29 1014.39 1014.49 1014.74 1014.79
1025.55 1025.28 1025.02 1024.76 1024.43 1024.06 1023.61 1023.21 1022.82 1022.40 1021.82 1021.39 1020.95 1020.48 1020.03 1019.52 1018.95 1018.41 1018.06 1017.78 1017.60 1017.35 1016.94 1016.41 1015.71 1015.35 1014.95 1014.73 1014.45 1014.15 1013.86 1013.77 1013.79 1013.89 1014.25 1014.51 1014.55 1014.50 1014.41 1014.38 1014.64 1014.83 1015.00
1025.82 1025.58 1025.30 1025.08 1024.85 1024.49 1024.07 1023.62 1023.28 1022.82 1022.32 1021.84 1021.36 1020.89 1020.50 1020.00 1019.36 1018.86 1018.46 1018.11 1017.85 1017.60 1017.34 1016.95 1016.58 1015.97 1015.57 1015.26 1015.09 1015.00 1014.80 1014.70 1014.62 1014.64 1014.70 1014.73 1014.54 1014.39 1014.20 1014.34 1014.66 1014.98 1015.31
1025.94 1025.74 1025.47 1025.24 1025.12 1024.83 1024.54 1024.17 1023.71 1023.29 1022.77 1022.18 1021.70 1021.25 1020.78 1020.31 1019.80 1019.29 1018.88 1018.55 1018.26 1017.97 1017.64 1017.31 1016.85 1016.39 1015.95 1015.75 1015.59 1015.69 1015.65 1015.48 1015.19 1015.09 1015.06 1015.01 1014.89 1014.59 1014.51 1014.70 1015.09 1015.32 1015.73
1025.96 1025.74 1025.51 1025.37 1025.24 1025.01 1024.67 1024.33 1024.03 1023.64 1023.15 1022.49 1021.97 1021.47 1021.07 1020.64 1020.13 1019.62 1019.19 1018.94 1018.58 1018.32 1018.01 1017.72 1017.46 1017.06 1016.55 1016.15 1016.06 1016.09 1016.16 1016.19 1015.82 1015.66 1015.55 1015.30 1015.29 1015.22 1015.10 1015.18 1015.08 1015.32 1015.76
1025.94 1025.75 1025.52 1025.38 1025.29 1025.05 1024.72 1024.38 1024.09 1023.72 1023.25 1022.89 1022.22 1021.67 1021.25 1020.92 1020.52 1020.07 1019.55 1019.13 1018.93 1018.65 1018.30 1018.03 1017.79 1017.52 1017.15 1016.83 1016.58 1016.48 1016.53 1016.46 1016.37 1016.26 1016.19 1016.09 1016.01 1015.97 1015.90 1015.70 1015.45 1015.44 1015.90
1025.87 1025.81 1025.66 1025.43 1025.22 1025.02 1024.84 1024.47 1024.14 1023.91 1023.76 1023.34 1022.63 1021.99 1021.53 1021.11 1020.74 1020.37 1019.95 1019.51 1019.14 1018.96 1018.71 1018.45 1018.11 1017.84 1017.53 1017.26 1017.13 1017.00 1016.89 1016.81 1016.81 1016.83 1016.88 1016.91 1016.79 1016.78 1016.70 1016.58 1016.28 1016.23 1016.17
1025.82 1025.71 1025.61 1025.37 1025.14 1024.90 1024.74 1024.48 1024.23 1024.01 1023.84 1023.62 1023.24 1022.69 1022.09 1021.51 1021.08 1020.58 1020.24 1019.85 1019.43 1019.20 1018.97 1018.68 1018.35 1018.07 1017.84 1017.66 1017.50 1017.36 1017.22 1017.12 1017.18 1017.24 1017.26 1017.23 1017.17 1017.12 1017.01 1016.91 1016.67 1016.67 1016.59
1025.82 1025.68 1025.52 1025.42 1025.06 1024.68 1024.47 1024.25 1024.17 1024.05 1023.94 1023.76 1023.43 1023.25 1022.65 1021.99 1021.70 1021.25 1020.67 1020.16 1019.73 1019.40 1019.17 1018.85 1018.57 1018.31 1018.10 1017.97 1017.82 1017.73 1017.62 1017.51 1017.50 1017.52 1017.51 1017.47 1017.42 1017.42 1017.37 1017.28 1017.29 1017.27 1017.23
1025.65 1025.65 1025.51 1025.27 1024.98 1024.44 1024.07 1023.91 1023.95 1023.86 1023.69 1023.93 1023.77 1023.65 1023.07 1022.56 1022.22 1021.84 1021.31 1020.72 1020.23 1019.95 1019.52 1019.16 1018.88 1018.56 1018.39 1018.27 1018.08 1017.95 1017.83 1017.74 1017.73 1017.71 1017.71 1017.74 1017.74 1017.66 1017.67 1017.53 1017.42 1017.42 1017.61
1025.49 1025.47 1025.39 1025.22 1024.95 1024.38 1024.11 1023.75 1023.60 1023.71 1023.69 1023.60 1023.67 1023.62 1023.08 1022.70 1022.30 1021.87 1021.51 1021.08 1020.53 1020.19 1019.98 1019.86 1019.70 1019.45 1019.14 1018.82 1018.46 1018.21 1017.97 1017.87 1017.82 1017.78 1017.81 1017.81 1017.83 1017.76 1017.76 1017.78 1017.69 1017.83 1017.98
1025.42 1025.27 1024.88 1024.62 1024.60 1024.32 1024.10 1023.99 1023.80 1023.37 1023.19 1023.41 1023.24 1023.05 1023.01 1022.84 1022.37 1022.17 1021.69 1021.32 1020.89 1020.43 1020.47 1020.37 1020.19 1019.98 1019.74 1019.43 1018.98 1018.58 1018.25 1018.04 1017.89 1017.83 1017.86 1017.88 1017.87 1017.90 1017.94 1017.98 1018.03 1018.07 1018.14
1025.12 1025.00 1024.82 1024.55 1024.24 1024.09 1024.04 1023.99 1023.90 1023.78 1023.77 1023.63 1023.27 1023.23 1023.01 1022.64 1022.42 1022.20 1021.98 1021.43 1021.16 1020.94 1020.87 1020.70 1020.51 1020.30 1020.12 1019.94 1019.44 1019.09 1018.64 1018.38 1018.14 1017.94 1017.90 1017.87 1017.85 1017.88 1017.93 1017.95 1017.98 1017.97 1017.99
1024.99 1024.82 1024.63 1024.46 1024.23 1023.89 1023.93 1023.92 1023.92 1023.91 1023.83 1023.75 1023.44 1023.21 1022.98 1022.71 1022.34 1022.09 1022.07 1021.95 1021.69 1021.38 1021.12 1020.87 1020.65 1020.50 1020.38 1020.22 1019.81 1019.50 1019.16 1018.89 1018.60 1018.28 1017.97 1017.85 1017.79 1017.87 1017.81 1017.81 1017.85 1017.96 1018.08
1024.58 1024.53 1024.49 1024.37 1024.28 1023.94 1023.95 1023.95 1023.91 1023.90 1023.91 1023.82 1023.70 1023.43 1023.12 1022.88 1022.70 1022.50 1022.23 1022.04 1021.82 1021.60 1021.32 1021.06 1020.82 1020.66 1020.53 1020.42 1020.17 1019.84 1019.62 1019.29 1018.95 1018.66 1018.29 1017.96 1017.59 1017.42 1017.57 1017.67 1017.81 1018.00 1018.21
1024.46 1024.33 1024.33 1024.39 1024.48 1024.25 1024.01 1023.88 1023.90 1023.91 1023.87 1023.77 1023.61 1023.42 1023.22 1023.17 1022.95 1022.69 1022.47 1022.14 1021.90 1021.70 1021.47 1021.23 1021.01 1020.86 1020.74 1020.58 1020.38 1020.15 1019.92 1019.69 1019.44 1019.09 1018.60 1018.19 1017.71 1017.45 1017.39 1017.48 1017.71 1017.94 1018.15
1024.39 1024.19 1024.06 1024.34 1024.42 1024.41 1024.34 1024.13 1024.16 1024.07 1023.92 1023.72 1023.56 1023.40 1023.16 1022.99 1022.82 1022.70 1022.42 1022.13 1021.92 1021.69 1021.49 1021.34 1021.18 1021.00 1020.90 1020.79 1020.59 1020.36 1020.13 1019.92 1019.68 1019.40 1018.91 1018.41 1017.99 1017.49 1017.32 1017.36 1017.52 1017.75 1018.01
1024.17 1024.09 1024.26 1024.42 1024.37 1024.33 1024.34 1024.31 1024.34 1024.31 1024.17 1023.86 1023.63 1023.40 1023.12 1023.01 1022.83 1022.62 1022.37 1022.01 1021.74 1021.46 1021.33 1021.14 1021.05 1021.08 1020.94 1020.87 1020.70 1020.46 1020.30 1020.05 1019.81 1019.70 1019.21 1018.58 1018.19 1017.76 1017.44 1017.32 1017.30 1017.48 1017.71
1024.01 1023.94 1024.11 1024.17 1024.37 1024.49 1024.54 1024.48 1024.43 1024.33 1024.23 1024.01 1023.71 1023.41 1023.22 1022.98 1022.78 1022.56 1022.32 1022.03 1021.67 1021.41 1021.35 1021.34 1021.31 1021.20 1021.09 1021.01 1020.94 1020.58 1020.37 1020.21 1019.76 1019.39 1019.08 1018.68 1018.31 1017.89 1017.48 1017.13 1016.99 1017.05 1017.13
1023.78 1023.60 1023.69 1023.78 1024.13 1024.22 1024.34 1024.41 1024.54 1024.44 1024.26 1024.03 1023.57 1023.42 1023.25 1023.03 1022.80 1022.69 1022.57 1022.40 1022.33 1021.94 1021.70 1021.63 1021.69 1021.62 1021.41 1021.29 1021.25 1020.87 1020.50 1020.06 1019.69 1019.31 1018.82 1018.45 1018.07 1017.55 1017.11 1016.64 1016.37 1016.40 1016.48
1023.55 1023.33 1023.29 1023.55 1023.89 1024.10 1024.28 1024.51 1024.59 1024.48 1024.35 1024.00 1023.73 1023.53 1023.34 1023.19 1023.14 1023.17 1023.02 1022.90 1022.92 1022.67 1022.40 1022.26 1022.11 1021.92 1021.73 1021.57 1021.33 1021.05 1020.54 1019.98 1019.47 1019.05 1018.60 1018.17 1017.63 1017.12 1016.51 1016.20 1015.87 1015.75 1015.78
Wind_Speed
5 5 6 5 6 6 6 6 7 6 7 8 8 9 9 9 9 8 8 8 7 8 8 8 8 7 5 5 4 3 2 2 2 2 3 3 7 9 7 9 11 10 11
5 5 6 6 7 6 7 7 7 8 8 7 9 9 9 8 8 8 8 8 7 8 8 8 8 7 8 5 4 5 3 3 3 7 3 4 6 5 7 10 9 8 9
5 5 5 6 7 8 8 8 8 9 10 9 9 9 9 9 9 9 7 7 7 7 8 7 9 9 9 7 7 6 5 5 6 6 4 3 4 5 8 8 6 9 8
5 6 6 6 6 6 6 7 8 9 9 9 9 9 9 8 8 9 8 8 8 7 8 8 8 6 6 8 7 7 7 8 7 8 7 4 4 5 3 6 7 4 7
5 6 6 6 6 6 6 7 8 8 8 8 9 10 9 6 7 7 8 8 7 8 7 8 8 12 15 15 5 6 7 6 6 6 5 4 4 2 2 2 3 4 3
5 6 6 6 6 6 6 7 7 7 8 9 9 8 9 7 15 13 8 5 7 7 8 9 7 11 10 15 16 17 10 6 7 4 3 3 3 2 1 1 2 2 2
5 6 6 6 6 6 6 6 7 9 7 9 9 8 9 9 15 12 10 4 5 6 8 9 8 7 8 6 12 15 17 17 12 4 4 3 2 1 1 2 2 2 2
5 5 5 5 5 6 6 7 6 5 6 5 7 8 7 9 15 12 11 7 6 7 6 7 6 7 8 6 7 7 9 9 7 5 5 4 2 2 2 3 4 5 3
5 5 5 5 5 5 6 6 5 5 6 7 5 7 7 7 14 13 8 5 7 7 7 7 8 8 11 10 6 6 6 5 8 11 11 11 12 13 6 3 2 3 3
4 5 5 4 4 4 4 4 4 3 5 5 6 6 9 7 10 13 10 5 6 5 6 7 13 9 10 11 6 4 7 3 4 5 5 8 10 10 13 6 0 3 3
4 5 5 5 2 3 3 3 4 5 6 6 5 5 6 7 8 13 11 5 4 4 5 5 5 10 9 9 8 5 4 3 5 4 4 4 5 7 6 6 7 4 3
3 4 5 4 3 3 4 3 3 5 6 7 7 7 6 7 8 10 12 7 8 4 5 4 4 8 9 8 5 6 6 4 3 3 3 3 4 4 4 4 6 5 5
3 4 3 4 3 3 3 3 3 4 4 4 4 5 7 7 7 13 10 10 8 4 3 5 7 9 8 6 8 7 5 3 3 3 3 3 2 2 2 2 4 5 6
2 3 3 4 6 4 3 3 1 2 3 4 4 4 5 5 6 6 6 5 7 6 6 5 5 6 6 4 4 4 3 3 2 2 2 2 2 2 2 2 2 1 3
1 2 4 3 4 4 3 4 3 2 2 2 3 2 3 5 5 5 4 5 4 6 5 5 6 5 5 4 3 3 3 3 3 2 2 2 2 2 1 2 2 4 4
1 2 3 3 4 3 3 4 5 8 6 6 6 4 3 6 10 9 8 10 10 9 4 4 5 5 6 5 5 3 3 3 2 2 2 2 1 2 2 2 3 3 3
2 4 3 3 3 3 3 3 4 4 6 3 3 4 2 6 8 10 9 8 10 6 4 4 4 4 5 5 4 4 4 3 2 2 2 2 2 2 1 1 1 1 1
2 5 3 3 2 2 1 2 2 2 2 3 4 5 8 7 7 8 10 7 5 5 3 3 3 4 4 4 5 4 4 4 3 2 1 0 1 1 1 0 0 1 1
2 3 3 3 4 1 0 1 1 2 2 2 2 4 6 9 7 7 8 3 3 3 3 3 3 3 3 4 4 5 4 4 4 4 3 1 2 2 2 1 1 1 1
3 7 5 3 3 1 1 2 2 1 2 2 3 3 4 4 4 4 3 3 3 3 4 4 4 3 3 4 4 4 4 4 4 4 4 3 3 3 2 2 2 1 1
2 4 2 2 2 2 2 1 0 1 1 3 2 2 3 1 3 3 3 3 3 3 3 4 4 3 3 3 3 4 4 4 4 3 4 4 4 1 2 3 2 3 1
3 4 4 2 1 1 1 1 1 1 1 2 2 2 4 1 2 3 3 3 3 3 2 3 3 3 3 4 4 4 4 4 4 4 4 4 4 2 1 2 3 2 2
3 3 1 2 2 3 1 1 1 1 2 2 3 3 2 2 3 4 4 4 3 2 1 1 2 3 3 3 4 3 4 5 4 3 5 4 4 4 2 2 3 3 3
4 4 4 4 2 2 2 2 2 2 2 3 3 3 3 3 3 3 4 4 4 3 1 3 3 4 4 5 4 4 4 5 5 4 6 5 4 4 4 3 3 5 4
3 3 5 4 4 3 2 1 1 2 3 4 2 3 3 3 3 4 4 4 5 4 4 4 4 5 6 8 7 9 9 9 7 6 4 5 6 7 6 4 4 4 5
4 4 3 3 3 2 2 0 2 3 3 3 3 3 3 3 3 3 3 4 4 4 5 4 5 7 7 5 9 11 11 12 10 9 5 4 5 5 5 4 4 2 4
Wind_Direction
358 348 357 338 333 335 349 348 337 333 343 348 345 345 351 349 352 351 344 350 359 359 1 359 2 349 346 342 326 310 286 238 237 79 84 75 67 80 70 63 53 57 68
346 1 350 339 341 347 351 349 341 333 335 338 350 353 348 348 343 350 349 347 351 357 357 355 356 354 359 352 326 337 310 253 223 112 53 76 67 61 86 78 68 64 70
3 6 346 352 360 2 2 354 351 346 346 354 358 357 350 346 345 347 353 354 353 355 357 353 352 358 357 354 355 353 352 31 60 102 92 54 66 70 80 70 72 79 80
4 356 353 347 345 348 350 350 359 353 357 357 359 356 355 344 347 345 359 2 1 0 354 350 346 348 356 354 9 2 14 50 56 78 84 76 86 34 43 93 77 64 86
357 355 347 346 3 1 1 352 358 2 354 356 4 1 356 354 349 344 6 14 4 357 353 354 351 23 26 28 30 22 35 47 53 63 68 61 59 91 78 13 96 109 59
13 1 350 3 7 2 1 354 357 351 356 359 356 355 357 359 358 10 35 20 8 4 356 349 2 16 30 40 45 59 65 60 53 55 56 62 49 38 61 97 115 119 106
15 4 5 10 13 360 351 2 0 358 349 1 0 4 3 4 359 9 9 6 15 6 5 2 7 14 25 29 41 48 57 63 67 70 76 42 66 13 137 80 53 84 75
10 6 5 11 11 2 359 357 357 352 351 345 350 359 10 12 8 9 7 8 10 11 6 359 2 2 15 28 50 40 53 50 43 59 64 43 55 9 88 133 136 100 72
4 355 350 354 359 359 9 355 346 353 345 345 339 348 359 353 358 10 9 2 8 6 5 11 15 12 12 37 60 68 49 41 54 62 64 56 49 48 65 101 77 92 62
338 336 344 4 14 10 352 350 325 331 329 348 350 349 352 347 356 1 5 2 3 3 7 14 18 15 12 27 46 47 79 19 50 42 15 34 33 35 42 50 167 113 117
325 344 5 10 8 345 328 357 341 351 357 1 351 346 352 351 347 358 353 3 357 355 2 2 6 13 25 36 39 42 55 49 62 56 45 33 36 36 28 27 35 60 109
357 0 0 356 358 350 6 358 16 24 19 3 1 359 353 350 356 358 352 354 5 13 3 354 354 8 29 41 48 48 63 75 64 59 51 33 50 39 23 25 43 49 54
19 351 349 329 323 327 336 357 11 8 20 355 354 352 347 349 354 351 348 353 10 5 0 9 12 11 19 36 41 45 44 55 60 59 50 49 39 61 81 46 53 56 51
8 326 330 330 314 311 302 287 311 2 357 345 347 350 327 342 358 345 343 352 8 4 351 1 359 6 24 23 37 37 41 49 60 64 53 46 40 59 62 37 66 63 71
25 332 319 307 303 309 303 255 283 248 205 316 322 320 312 348 330 302 324 357 6 359 346 12 13 0 12 9 8 21 31 37 50 45 66 72 68 75 61 45 52 55 66
293 308 278 292 316 323 333 329 255 244 237 246 284 249 301 263 315 2 13 2 20 13 13 15 16 8 13 2 4 356 9 29 25 44 68 80 82 82 95 63 62 69 90
256 291 309 327 321 335 338 3 353 340 36 331 312 36 17 279 341 8 5 6 18 25 33 3 8 8 359 353 359 0 350 349 5 43 62 74 91 86 76 52 55 99 120
219 282 309 313 315 326 318 13 3 22 353 344 338 352 340 347 8 4 5 3 16 16 6 353 354 0 360 358 352 357 351 356 3 1 8 53 127 147 165 202 75 86 82
228 270 294 301 293 59 333 306 266 297 312 289 332 337 332 343 9 6 11 11 349 346 348 358 357 4 8 360 350 354 355 353 346 352 349 261 223 200 222 207 131 103 89
257 260 270 313 323 113 43 338 283 32 337 324 320 324 332 3 1 351 355 350 351 347 346 350 355 7 5 14 350 349 351 357 350 342 337 330 319 201 223 190 187 166 187
264 279 247 16 308 303 314 89 57 264 279 308 281 310 300 336 338 337 332 334 342 347 346 345 351 13 2 353 358 344 349 344 349 325 322 325 326 255 200 205 203 206 189
286 259 213 196 247 7 346 48 8 19 16 1 312 297 341 299 327 325 318 321 335 334 339 348 354 12 13 353 341 335 337 333 335 336 327 323 324 300 214 185 186 177 174
280 246 74 224 226 229 287 323 333 321 322 359 332 309 342 313 329 316 320 304 286 269 299 9 22 6 355 4 341 339 338 334 326 308 304 312 319 314 319 247 201 184 177
292 248 206 220 227 245 283 288 298 309 317 322 335 345 331 336 327 314 321 331 339 300 334 5 25 31 2 0 346 347 353 332 316 304 304 290 291 295 287 267 217 211 203
281 193 201 211 210 218 272 260 317 329 312 296 346 351 331 335 348 14 19 9 355 1 8 51 41 8 9 5 1 351 336 324 323 310 295 276 270 274 271 264 239 217 223
264 243 231 169 176 190 165 117 323 316 310 299 331 350 4 9 49 33 16 24 8 7 16 21 11 10 7 1 360 344 336 333 326 320 297 252 270 280 287 277 289 229 246